Reflectivity
22 5 -4 -20 -20 -20 -20 -20 -20 -20 -20 -20 -20 -20 -20 -20 -20 -20 -20 -20 -20 2 -20 -20 -20 -20 -20 -20 -20 -20 -16 -20 -20 -20 -20 -20 -20 -20 -20 -20 -20 -20 -20 -12 -20 -4 -17 -20 -20 -20 -7 -20 -13 -20
22 22 17 -20 -20 -2 -20 -20 -20 -20 -20 -20 -20 -20 -20 -20 -20 -3 -20 -20 -20 -20 -20 -20 -20 -20 -20 -20 11 -20 -20 -20 -20 -19 -20 -20 -20 -11 -20 -10 -20 -20 -20 -20 -20 -20 -20 -20 -20 -20 -20 3 -20 19
22 19 10 -0 -1 -19 5 -6 -19 -20 -20 -18 -20 -20 -20 -20 -20 -20 -20 -20 -20 7 -20 -20 -20 -16 -13 -1 4 16 -20 -18 -14 -20 -15 5 29 19 7 12 -19 -1 9 -17 -15 -20 -20 -20 -20 -20 -20 7 1 2
9 26 21 15 10 17 -14 2 -8 -5 -19 -20 -20 -20 -20 -20 -20 -19 -20 -20 -20 -13 9 3 -20 -15 -2 -12 -20 -20 -20 -20 0 24 25 26 20 4 16 -7 -17 14 20 -19 -20 -20 -20 -20 -18 12 -15 4 16 9
-10 -6 4 7 25 -1 -20 -15 -10 11 -12 -20 -20 -20 -20 -20 -20 -20 -20 -20 -20 16 -6 11 -3 -10 4 10 -6 -19 -17 -1 19 19 19 7 -20 -14 -20 -20 -7 -15 -20 2 -18 -20 12 -1 -17 -11 18 10 -4 -12
-3 -8 -20 -20 -3 5 0 -19 -3 -20 7 -20 -20 -20 -8 -20 -20 -17 -1 -14 -20 -7 22 30 -1 -20 -20 -17 -15 -20 -19 -7 11 9 9 -14 -20 1 -20 1 -6 -20 -20 -14 -6 14 5 -19 -17 29 24 -19 -10 7
-20 -15 -20 -20 -20 -16 6 -0 -10 -8 -12 -17 14 18 21 22 26 30 22 7 -8 24 26 17 3 -2 -20 -20 -20 -20 -20 -11 5 -16 1 -20 8 17 30 26 -20 -20 -20 -20 -20 -2 15 14 2 -10 -7 12 -2 -20
-20 -20 -11 -5 -20 -20 -20 -7 2 -14 9 6 9 11 23 25 32 28 21 13 16 20 26 31 20 2 -17 -20 -20 -20 -20 -17 -20 -20 -20 -13 3 11 28 11 -20 -20 -20 -20 -9 15 22 11 7 -13 -13 1 14 -12
-20 -20 -16 -20 -20 -20 -20 -20 -9 -20 -20 -15 6 8 9 9 16 23 26 21 21 18 35 25 -2 -16 1 -20 -14 4 -1 3 -5 -11 -20 -1 -10 16 -7 -20 -20 -20 -20 -20 -18 -20 -20 -10 -15 9 -6 -17 -20 -20
-20 -20 -20 -20 -20 -20 -20 -20 -20 -8 9 14 8 -5 4 11 21 19 28 21 21 38 34 3 10 10 -20 -13 17 12 25 19 -5 -20 -20 -2 0 -20 -20 -20 -20 -20 -20 -20 -19 7 22 6 -20 -20 -20 -20 -20 -20
-20 -20 -20 -20 -20 -20 -20 -20 -17 -20 12 -5 -2 8 8 13 12 10 4 18 20 15 1 -6 -3 -12 -3 14 28 29 24 17 -1 -20 -14 -20 -20 -20 -20 -20 -20 -6 -14 18 1 1 10 -13 -20 -20 -20 -20 -20 -20
-20 -17 -20 -20 -20 -20 -20 -5 19 7 -18 -20 -20 3 -3 3 -12 -17 -4 -2 2 -19 -9 -20 -20 -5 16 25 23 25 -11 8 -20 -20 -20 -20 -20 -20 -20 -20 7 -18 -20 -17 5 -14 -20 -20 -20 -20 -20 -20 -20 -20
3 11 1 -20 -20 -20 -20 -18 9 13 6 -17 -19 -20 -20 7 -16 -20 -20 -13 -20 -18 17 6 2 -19 -4 -8 13 -18 -2 -17 -20 -20 -20 -20 -20 -20 -20 -14 -20 -20 -20 -20 -20 -20 -20 -20 -20 -20 -20 -20 -20 -20
-20 -10 -20 -8 -20 -20 -20 -20 -19 -20 -20 -20 -20 -20 -20 -20 -20 -15 -20 -20 -11 -5 -20 -6 6 -20 -20 -20 -20 -20 -20 -20 9 -20 -20 -20 -20 -20 -20 -13 14 9 1 -20 -20 -20 -20 -20 -20 -20 -20 -20 -20 -20
9 7 -1 -5 -2 -20 -20 -19 -5 -20 -20 -20 -20 -20 -20 -16 -20 -20 -20 -20 -10 -8 -16 -20 -20 -20 -20 -20 -20 -20 -20 -18 -20 -20 -20 -20 -20 -20 -20 -20 -20 -20 -20 -20 -20 -20 -20 -20 -20 -20 -20 -20 -20 -20
-2 13 -2 -17 -12 11 -6 -20 -11 -20 -20 -20 -20 -20 -20 -20 -20 -20 -20 -20 -20 -20 -20 -20 -20 -20 -20 -20 -20 -20 -20 -20 -20 -20 -20 -20 -20 -20 -20 -20 -20 -20 -20 -20 -20 -20 -20 -20 -20 -20 -20 -20 -15 -20
-10 -20 -19 -20 -18 -11 11 11 -16 -20 -20 -20 -20 -20 -20 -20 -20 -20 -20 -20 -20 -20 -20 -20 -20 -20 -20 -20 -20 -20 -20 -20 -20 -20 -20 -20 -20 -20 -20 -20 -20 -20 -20 -20 -20 -20 -20 -20 -20 -20 -20 -20 -3 -19
-20 -11 -16 7 -2 10 19 4 -19 -20 -20 -20 -20 -20 -20 -20 -20 -20 -20 -20 -20 -20 -20 -20 -20 -20 -20 -20 -20 -20 -20 -20 -20 -20 -20 -20 -20 -20 -20 -20 -20 -20 -20 -20 -20 -20 -20 -20 -20 -20 -10 4 -20 -20
-9 -19 1 -12 6 -7 -7 -13 -13 -18 -20 -20 -20 -20 -20 -20 -20 -20 -20 -20 -20 -20 -20 -20 -20 -20 -20 -20 -20 -20 -20 -20 -20 -20 -20 -20 -20 -20 -20 -20 -20 -20 -20 -20 -20 -20 -20 13 -20 -20 -3 -3 -16 -14
-20 -20 -11 6 -13 -20 -20 -20 -20 -20 -2 -20 -20 -20 -20 -20 -20 -20 -20 -20 -20 -20 -12 -2 -20 -20 -20 -20 -20 -20 -20 -20 -20 -20 -20 -20 -20 -20 -20 -20 -20 -20 -20 -20 -20 -20 -1 -19 -19 -19 3 10 -1 -19
-20 4 -14 -12 1 -20 -20 -20 -12 -20 -20 -20 -20 -20 -20 -20 -20 -20 -20 -20 -20 -19 -20 -20 -20 -20 -20 -20 -20 -20 -20 -20 -20 10 9 -20 -20 -20 -20 -20 -20 -20 -20 -15 -3 -20 -20 -16 -15 -14 12 13 21 -7
-20 -20 24 25 12 -20 -20 -20 -20 -20 -20 -20 -20 -20 -20 -20 -20 -20 -20 -16 -17 -20 -20 -20 -20 -20 -20 -20 -20 -20 -19 5 -17 -20 -20 -20 -20 -20 -20 -20 5 -1 -8 -15 -20 -7 3 -11 16 17 -4 -19 -20 -20
-12 -20 -20 -20 -20 -20 -20 -20 -20 -20 -20 -20 -20 -20 -20 -20 -20 -20 -20 -20 -20 -20 -20 -20 -20 -20 -20 -20 -20 -20 -20 -20 -20 -20 -20 -11 -2 -20 0 -20 0 -1 -19 -20 4 13 5 17 12 13 -8 -20 -20 -20
-20 -20 -20 -20 -20 -20 -20 0 -13 -20 -20 -20 -20 -20 -20 -20 -20 -20 -20 -20 -20 -20 -20 -20 -20 -20 -20 -20 -20 -20 -20 -15 -20 -20 -20 -1 -18 -20 -20 -20 -20 -19 -9 -8 3 9 5 -1 8 -5 -19 -20 -20 -20
5 -20 -20 -20 -20 -19 -17 0 -3 -20 -20 -20 -20 -20 -20 -20 -20 -20 -20 -20 -20 -20 -20 -20 -20 -20 -20 -20 -20 -20 -20 -20 -20 -20 -20 -20 -20 -20 -20 -19 -2 -1 -20 -7 -1 21 8 9 2 -20 -20 -20 -20 -20
3 -19 -20 -20 -15 -1 -20 -20 -20 -20 -20 -20 -20 -20 -20 -20 -20 -20 -20 -20 -20 -20 -20 -20 -20 -20 -20 -20 -20 -20 -20 -20 -20 -20 -20 -20 -16 -6 -20 -20 -20 -20 -20 22 15 -20 -20 -20 -20 -20 -20 -20 -17 -8
11 -14 -20 -20 -20 -20 -20 -20 -20 -20 -20 -20 -20 -20 -20 -19 -20 -20 -20 -20 -20 -20 -20 -20 -20 -20 -20 -20 -20 -7 -20 -20 -20 -20 -20 -20 -15 -16 -20 -17 -19 -14 -20 1 13 -20 -20 -20 -20 -20 -20 -20 -20 -20
-20 -20 -15 -20 -20 -20 -20 -20 -20 -20 -20 -20 -20 -16 -17 -20 -20 -20 -20 -20 -20 -20 -20 -20 -20 -20 -20 -20 -20 -20 -20 -20 -13 -20 -20 -20 -20 -20 -20 -17 2 15 -16 -7 1 -19 -20 -20 -20 -20 -20 -20 -20 -12
-20 -20 -20 -20 -20 -20 -20 -20 -20 -20 -20 -16 -4 -20 -20 -20 -20 -20 -20 -20 -20 -20 -20 -20 -20 -20 -20 -20 -20 -20 -20 -20 -11 -20 -20 -20 -20 -20 -20 -20 -19 -20 -19 -18 0 -6 -13 5 -10 -19 -18 -20 -20 -20
-20 -20 -20 -20 -20 -20 -20 -20 -20 -20 10 3 -1 -16 -20 -20 -20 -20 -20 -20 -20 -20 -20 -20 -20 -20 -20 -20 -20 -20 -20 -14 -6 -14 -19 -20 -20 -20 -20 -8 -20 -8 8 -18 -9 -20 -16 -1 14 14 16 11 6 -4
-20 -20 -20 -20 -20 -20 -20 -20 -20 -20 -20 -20 -20 -11 -20 -20 -20 -20 -20 -20 -20 -20 -20 -20 -20 -20 -18 -18 -18 -20 -20 -7 -20 -20 -20 -20 -17 -8 -20 -7 -20 -20 -20 -20 -20 -20 -9 8 12 15 14 12 8 3
-5 -20 10 8 -7 -20 -18 3 -20 -8 -20 -12 -20 -20 -20 -7 -8 -3 -18 -20 -20 -20 -20 -20 -20 -20 -20 -20 -20 -20 -20 -20 -20 -20 -20 -20 -20 -20 -19 -18 -20 -20 -20 -20 -20 -20 -20 -9 -1 -12 -17 -14 -19 -20
-20 0 12 10 7 -18 -20 -14 -17 -19 -20 -20 -20 -20 -20 -8 16 1 -20 -20 -20 -20 -20 -20 -20 -20 -20 -20 -17 -20 -20 -20 -20 -20 -20 -20 -20 -20 -20 -20 -20 -20 -20 -20 -20 -20 -20 -20 -20 -7 -14 -11 -18 -20
Wind_Speed
9 9 14 13 13 13 12 11 11 10 9 8 8 7 5 2 4 3 3 2 3 3 5 3 2 3 3 2 4 4 6 5 4 2 3 4 4 6 2 5 4 5 3 5 3 5 9 2 8 5 10 9 18 14
6 7 9 12 13 15 13 12 11 11 10 9 8 8 7 7 4 1 0 2 2 3 4 3 5 3 3 1 3 1 6 3 5 3 3 2 3 1 4 6 4 4 9 6 10 8 6 13 12 12 19 19 16 11
5 4 4 7 9 12 13 12 12 11 11 11 10 10 9 10 9 5 0 1 4 3 4 1 7 5 4 4 5 4 3 5 4 6 6 4 5 4 5 6 5 3 4 7 7 4 17 17 19 18 15 12 8 9
8 7 4 4 6 8 10 9 10 11 11 11 10 10 11 11 12 9 3 2 3 3 3 6 2 7 4 7 6 6 8 5 3 1 3 4 3 6 5 6 8 6 6 8 15 18 19 14 11 14 7 6 4 6
8 8 6 5 1 2 7 9 10 11 11 11 10 11 11 12 12 5 1 2 3 4 3 4 4 6 5 5 8 8 6 7 2 1 2 4 3 2 3 2 4 8 15 8 16 17 13 19 8 7 6 3 8 4
5 7 6 5 4 3 6 8 10 11 11 11 11 11 12 11 12 3 2 5 6 4 2 3 3 3 4 7 10 11 9 5 4 5 4 4 6 6 5 8 9 14 10 14 12 12 16 9 12 6 5 5 9 6
5 6 8 7 7 7 6 2 8 10 10 10 12 12 10 13 6 3 5 1 4 4 3 4 4 3 4 2 3 3 1 2 3 3 4 4 5 5 2 11 17 14 9 13 19 16 6 4 4 5 7 7 7 6
6 6 7 7 7 8 8 7 5 6 10 10 9 9 9 11 8 2 3 3 3 4 2 3 3 4 2 1 1 3 2 3 2 2 1 2 2 2 6 11 10 7 11 11 2 6 5 4 6 6 6 6 6 2
9 8 6 5 4 5 8 8 7 9 8 10 14 17 5 3 2 1 7 7 3 2 4 2 2 3 1 1 2 3 2 1 2 2 3 3 3 8 7 8 7 8 1 4 10 8 10 8 6 7 6 8 4 2
9 8 6 5 4 4 4 6 7 11 12 10 2 4 3 2 10 7 3 3 4 3 2 2 1 3 3 1 1 1 1 2 3 4 1 4 8 10 12 13 8 6 6 8 6 3 3 4 5 8 7 5 4 4
9 9 10 8 6 6 5 5 5 3 4 2 3 3 1 3 1 3 2 1 1 2 3 2 3 1 2 2 2 1 1 1 3 6 4 3 4 5 4 5 8 7 6 4 6 5 6 7 11 11 10 7 6 6
11 12 12 10 8 7 7 7 6 2 1 3 5 5 3 1 3 2 3 2 3 4 4 2 2 1 2 1 2 1 1 1 6 3 1 4 5 4 5 7 10 7 7 7 7 6 9 11 11 9 8 8 5 5
14 13 12 12 10 8 8 7 2 3 1 4 5 4 2 1 3 4 6 3 2 1 0 1 2 2 2 4 2 1 3 5 2 2 4 6 5 8 7 6 7 7 7 6 8 6 7 10 11 7 11 7 5 8
13 13 13 12 11 10 7 4 3 4 4 3 3 3 4 3 3 1 2 2 1 1 3 3 2 3 1 2 1 2 5 2 4 3 5 4 5 6 7 7 8 8 5 6 8 8 8 8 9 8 7 6 9 7
15 14 13 10 10 9 5 4 3 2 3 2 2 3 4 2 4 2 2 2 1 2 3 2 3 2 1 1 3 1 3 5 6 5 3 3 3 4 3 4 6 6 7 6 6 6 8 9 8 8 7 7 7 5
17 12 4 13 12 10 6 3 3 3 2 2 1 1 1 3 3 1 1 2 1 1 2 2 2 3 4 4 2 7 3 7 5 1 3 2 2 3 4 5 6 7 7 7 8 9 10 8 8 7 4 5 7 7
7 3 11 14 12 10 7 2 3 4 2 1 2 0 2 2 1 4 3 2 1 3 2 3 2 10 1 2 4 5 6 4 2 3 2 4 5 7 6 7 7 7 8 9 11 12 12 7 2 5 12 11 7 6
3 9 17 16 9 5 1 2 3 2 2 4 2 4 1 1 2 2 3 1 3 2 2 4 2 2 6 6 5 5 2 2 2 2 3 7 6 7 7 8 11 11 12 11 10 10 5 3 4 9 10 5 4 4
9 10 18 18 7 3 3 3 2 2 5 2 1 2 3 2 3 1 3 2 2 2 2 2 3 5 6 3 3 4 3 2 3 4 5 7 7 8 10 9 9 10 10 10 9 10 5 6 6 7 6 3 3 4
17 15 13 8 4 3 2 0 1 1 1 4 2 2 3 4 2 3 4 3 1 1 3 5 5 6 4 5 3 2 3 4 3 7 10 10 6 7 10 9 10 11 10 10 8 6 4 5 3 5 4 2 4 3
9 5 8 5 3 2 2 2 1 2 3 2 3 3 3 1 3 4 3 4 3 4 4 7 10 10 5 6 5 4 8 7 10 7 9 9 10 8 9 9 7 5 4 5 8 10 6 7 6 4 4 3 2 3
4 10 3 2 2 2 0 2 4 3 2 3 2 1 0 1 3 4 4 5 5 5 7 8 8 7 8 8 8 6 8 8 7 4 6 5 6 9 8 8 5 7 8 9 9 9 7 8 4 4 4 3 3 3
9 4 3 2 2 2 6 1 2 3 2 3 1 1 3 2 4 3 3 5 6 7 6 7 9 9 9 10 7 8 7 9 8 6 5 4 6 4 4 7 6 8 10 10 6 6 7 5 5 4 4 3 3 3
3 3 4 5 4 4 3 3 2 2 1 1 3 4 4 4 2 1 5 5 7 3 4 7 5 7 5 6 4 5 5 4 3 3 3 2 3 7 4 8 7 8 7 8 7 5 2 2 4 3 3 3 3 3
5 6 4 6 4 4 5 4 4 2 4 6 3 4 4 2 2 4 5 6 4 4 5 4 3 4 4 3 3 4 6 3 3 4 2 1 3 8 9 6 7 5 5 7 2 1 2 2 3 4 3 3 5 5
5 7 10 8 5 5 6 5 7 8 4 4 6 5 2 2 2 7 5 4 4 4 4 4 4 2 3 4 3 3 4 1 2 2 3 1 5 7 9 10 9 7 3 4 3 5 5 4 4 6 4 6 6 5
6 7 4 4 4 3 1 2 1 3 5 7 4 3 4 4 7 6 4 3 2 3 3 3 4 4 3 3 3 2 2 2 3 5 5 4 5 7 8 9 10 6 4 8 7 7 7 5 5 6 6 4 4 4
6 3 8 5 3 3 5 3 5 7 6 4 3 5 7 9 8 5 4 4 4 4 3 3 4 4 4 3 3 2 2 2 5 6 6 6 5 6 7 7 7 7 5 6 6 5 5 5 5 6 6 5 5 5
4 3 4 5 3 3 6 7 6 5 5 4 5 5 6 4 4 3 3 2 2 2 2 3 4 1 3 3 2 2 4 4 6 11 13 6 3 4 2 5 6 4 3 4 6 6 6 7 6 6 6 5 4 4
5 4 3 4 7 7 7 6 5 4 4 6 6 3 6 10 11 4 5 7 6 7 5 2 1 1 4 3 4 3 3 3 2 3 2 3 4 7 7 7 6 5 3 3 0 3 5 3 2 3 5 4 3 3
2 3 3 5 7 10 10 8 5 3 3 5 7 9 12 10 6 1 3 3 2 2 2 1 1 3 2 1 1 1 1 3 5 6 5 5 6 3 3 4 4 3 4 4 2 3 3 3 3 4 5 4 4 4
2 5 6 10 10 7 3 3 4 5 4 5 9 8 10 8 8 2 4 4 2 2 4 4 3 3 3 2 3 4 6 3 4 4 5 4 5 7 7 5 3 3 3 3 3 3 4 5 4 3 3 4 5 6
3 5 8 7 4 4 4 3 4 5 7 9 9 8 8 6 3 3 1 5 3 3 4 4 3 4 4 2 4 3 5 4 4 5 6 7 7 7 5 5 6 7 6 5 5 5 5 6 5 5 6 8 8 9
Wind_Direction
217 198 179 179 187 189 190 194 194 194 199 203 194 188 194 154 85 75 283 348 104 134 280 300 311 249 343 53 137 249 33 343 56 105 157 213 204 246 310 228 210 180 169 219 231 237 268 306 351 24 288 295 312 307
198 193 182 175 183 198 187 187 198 195 194 202 201 192 180 162 158 146 32 31 60 138 241 316 275 254 183 199 148 172 186 166 187 111 202 179 227 239 194 263 248 262 197 207 192 223 275 321 301 306 302 301 301 306
109 156 155 163 176 181 195 189 192 196 196 200 199 193 191 172 171 174 153 353 62 69 298 21 258 279 264 235 158 146 287 202 196 175 172 200 219 150 187 226 214 244 288 252 316 252 278 306 299 290 297 298 11 6
91 89 111 166 177 174 179 183 190 204 203 196 196 193 194 182 178 167 166 200 90 99 179 264 319 266 219 233 227 200 217 252 214 139 193 182 187 195 211 229 209 184 209 248 261 278 284 277 279 299 352 2 1 291
105 100 100 102 115 194 211 201 195 201 201 201 192 194 191 190 181 170 209 223 169 174 227 247 306 250 242 241 239 232 219 223 219 86 185 223 211 162 201 189 196 195 249 243 266 276 279 284 341 313 41 260 268 331
136 105 101 93 97 161 219 216 209 205 202 202 199 200 194 178 155 114 278 208 194 149 275 293 303 282 260 253 252 248 237 225 222 166 217 233 199 164 240 245 225 243 233 237 263 278 291 327 318 308 284 354 18 96
136 123 98 82 69 77 85 158 213 210 203 198 193 194 187 173 157 203 182 130 176 129 106 293 282 289 299 273 263 256 252 229 206 224 217 180 214 193 249 276 277 273 261 272 269 277 323 12 312 47 32 342 327 93
128 136 128 108 81 69 66 65 78 181 193 187 187 181 171 150 108 98 357 42 63 94 93 223 264 328 238 295 315 346 25 7 315 228 19 228 335 164 236 245 264 260 261 267 333 73 98 54 358 4 356 353 317 175
144 148 153 139 106 71 66 62 65 80 113 143 124 114 94 52 108 117 99 67 41 116 176 167 195 222 242 111 91 17 62 341 315 234 223 140 205 225 229 251 274 278 266 101 68 53 36 18 343 321 326 321 317 235
164 154 154 147 127 122 117 103 95 95 96 113 89 64 48 326 112 131 35 38 30 346 54 218 224 251 161 92 37 65 80 235 260 240 265 215 253 265 270 270 290 81 85 77 72 57 337 1 320 304 301 325 277 239
169 155 153 147 132 127 141 147 136 90 328 72 68 81 69 143 73 46 76 130 141 253 189 237 207 185 351 130 170 205 227 229 261 271 167 260 268 254 282 105 106 91 113 139 106 51 24 351 325 322 316 314 299 234
173 163 155 146 144 145 139 138 124 4 359 99 114 111 81 63 44 133 177 174 207 236 164 177 209 125 2 1 101 163 246 203 259 299 337 269 259 261 120 99 71 76 65 54 48 11 4 329 309 301 288 289 279 287
168 157 150 148 150 146 139 126 338 297 347 39 48 65 109 6 171 189 191 187 205 86 311 53 52 111 44 31 61 36 240 237 347 262 237 225 307 53 54 43 34 61 41 9 352 345 308 285 290 281 293 278 269 283
152 148 142 140 141 139 138 115 71 10 40 71 111 116 173 180 252 186 156 98 167 113 93 103 70 101 106 97 179 245 248 28 261 250 231 301 5 40 39 22 12 350 321 292 292 286 278 276 280 278 242 258 271 252
131 126 120 125 127 121 122 130 70 12 88 90 87 190 198 209 62 43 66 106 27 36 39 45 58 100 90 86 214 334 311 245 210 232 189 252 5 27 24 353 331 303 283 281 270 265 273 283 277 282 278 262 238 210
118 105 101 131 126 120 153 67 20 65 44 118 179 153 342 73 135 117 23 123 220 95 26 43 111 70 252 185 152 216 194 224 242 183 237 311 331 298 264 272 283 275 277 276 278 274 270 266 258 259 272 269 252 220
108 90 142 131 133 120 78 106 72 49 89 72 259 287 100 103 173 168 151 183 126 80 174 111 126 216 152 227 233 208 206 220 217 297 285 306 295 296 299 298 288 265 267 275 280 276 267 259 253 293 301 295 242 199
69 139 130 119 116 123 266 59 85 119 220 236 165 208 147 134 153 146 177 65 107 198 111 217 165 189 216 209 246 259 309 283 237 233 275 306 307 315 300 280 286 280 279 275 268 266 260 253 279 297 291 261 204 209
133 145 145 155 175 128 99 341 117 206 216 229 174 114 148 203 205 206 149 214 230 187 81 346 227 223 230 246 228 275 277 232 271 289 285 285 284 279 277 280 273 276 279 280 283 289 252 240 268 297 276 195 206 200
133 144 154 157 26 93 90 242 17 200 260 225 117 191 182 201 185 176 187 191 185 159 221 224 225 242 223 252 224 235 263 269 285 295 294 294 284 274 283 284 286 287 288 289 287 252 248 278 269 245 220 197 192 218
97 111 73 62 37 2 115 146 199 207 273 246 199 147 236 128 139 189 203 192 200 219 237 228 247 256 251 264 263 251 273 274 274 258 268 284 293 290 287 287 282 275 267 288 292 293 267 264 274 207 183 160 149 149
87 93 84 58 78 45 46 249 178 206 150 230 1 112 338 240 227 205 173 179 218 210 225 245 255 257 263 264 263 243 247 249 250 251 265 260 281 292 293 292 288 286 288 290 287 279 283 283 228 172 168 173 170 139
96 72 75 103 128 191 257 97 144 215 149 241 37 261 262 236 228 117 221 210 224 230 234 241 250 244 250 263 261 268 255 254 269 259 253 251 272 261 286 297 296 300 296 292 278 277 277 273 183 142 133 148 145 140
64 114 151 184 164 222 172 203 220 219 240 164 191 230 234 209 204 159 229 226 248 252 236 248 244 263 268 264 257 249 253 216 235 269 248 276 292 298 289 293 286 282 279 286 284 269 190 132 133 140 150 176 164 171
132 189 193 199 191 183 190 193 195 188 226 207 203 269 266 107 183 252 238 264 254 243 238 231 218 221 216 242 259 264 270 184 223 252 262 195 275 300 301 286 293 266 283 282 253 134 146 172 169 173 181 178 184 195
204 190 192 195 178 189 194 183 197 207 179 193 232 234 99 138 191 245 240 221 222 216 216 202 207 242 266 225 239 283 275 131 92 262 278 253 311 291 292 294 296 292 242 234 234 241 237 205 186 186 191 201 206 202
205 208 199 226 173 161 270 242 171 149 187 202 223 182 164 215 235 247 258 239 169 236 189 181 180 200 227 259 272 246 175 163 200 265 275 267 272 265 259 269 276 278 327 297 257 245 243 216 203 201 205 186 184 189
217 211 174 204 207 176 180 213 189 200 214 228 121 192 198 203 225 234 207 220 193 190 199 218 213 220 220 231 209 230 300 264 270 261 263 256 251 252 258 258 262 271 282 279 258 242 233 231 219 201 191 187 198 204
239 233 124 205 193 204 208 196 210 220 201 169 202 227 243 246 235 245 269 244 226 182 261 268 279 281 305 305 274 292 282 268 286 295 300 297 324 309 345 319 307 277 250 263 262 257 252 241 227 200 181 182 150 133
242 165 193 202 177 221 223 193 225 227 207 220 238 272 283 269 262 257 265 271 265 261 251 206 199 177 281 277 271 259 260 271 282 322 337 314 303 302 305 306 302 291 256 256 334 359 314 276 138 92 101 98 102 114
210 161 208 221 237 245 248 252 252 235 220 245 246 244 253 265 279 347 53 21 355 27 40 27 266 246 253 272 331 359 276 61 33 26 8 321 310 334 335 338 338 354 26 47 38 22 24 28 70 86 93 94 96 88
206 205 230 251 257 259 237 218 224 232 246 240 249 240 256 257 260 89 360 344 345 29 36 36 36 31 5 347 323 77 75 65 29 13 1 340 347 350 358 351 357 13 29 36 37 43 41 30 48 82 120 127 127 100
252 259 266 278 262 240 247 203 250 254 233 240 244 231 230 223 256 103 70 23 23 40 19 358 338 333 328 51 15 102 104 109 84 46 40 39 33 23 16 5 1 4 12 39 40 42 38 48 35 48 71 82 76 75